Theta_e
345 346 347 346 346 347 347 347 345 345 346 345 345 346 346 345 345 345 344 344 342 338 339 340 339 341 344 345 346 345 341 345 345 344 345 345 345 344 344 344 345 345 344
341 338 337 336 336 336 334 333 332 332 331 331 333 333 337 342 344 345 345 344 343 344 342 339 337 339 338 341 342 343 344 344 345 346 345 345 344 344 343 344 344 344 342
334 332 331 330 329 327 326 325 325 323 322 322 321 322 323 324 326 329 334 338 342 343 343 343 341 340 338 338 340 336 335 339 341 344 345 345 343 341 343 343 343 342 342
332 330 327 324 324 320 315 314 314 315 316 317 319 320 319 318 318 318 321 326 330 335 341 342 342 341 338 339 338 337 335 330 329 332 341 343 343 342 342 343 343 343 342
328 325 324 319 312 313 317 319 320 321 322 322 322 322 322 322 321 322 322 321 318 320 329 335 340 341 341 341 340 339 338 336 331 331 332 336 341 343 342 341 342 342 343
325 320 313 315 318 318 319 320 321 321 321 321 321 322 323 322 321 322 322 323 324 323 319 323 331 337 339 340 340 340 338 335 334 332 331 334 334 338 340 343 344 344 341
316 315 318 318 319 319 319 320 320 320 319 318 319 320 320 321 320 321 322 323 324 325 320 322 330 332 333 335 339 339 338 337 334 333 332 330 331 335 340 342 343 344 340
314 316 318 318 317 316 317 316 314 314 314 315 316 318 319 320 321 321 322 323 322 323 327 327 328 330 332 332 334 338 338 338 337 335 333 331 330 334 335 340 342 343 341
315 314 316 317 315 313 312 314 314 315 315 315 315 316 316 316 317 318 320 321 321 322 323 324 326 327 328 329 329 331 333 336 337 336 334 333 332 333 332 334 338 341 342
314 316 315 315 311 308 309 313 313 314 310 308 307 307 310 314 315 315 316 317 318 320 322 323 325 325 327 327 330 331 332 331 334 335 335 334 333 331 332 330 334 339 340
313 313 314 311 309 310 308 307 307 308 309 309 308 308 307 306 304 310 313 314 316 318 320 321 323 323 324 325 327 327 328 330 332 334 334 335 335 333 332 329 328 337 338
313 310 310 311 311 311 310 311 311 311 311 311 310 308 308 308 306 305 307 312 315 316 318 319 320 321 322 323 324 325 327 329 330 331 333 334 334 335 334 334 330 330 336
311 313 314 314 313 312 312 312 312 311 311 311 312 311 308 308 308 306 304 307 313 314 316 317 319 320 322 324 325 327 327 327 328 329 330 331 332 333 333 334 334 333 331
313 311 312 313 313 313 312 312 312 311 310 310 311 312 310 309 309 307 307 305 306 311 313 315 317 319 320 321 322 323 325 326 327 328 329 328 329 330 331 332 332 332 333
314 311 312 312 311 310 310 310 310 311 311 309 309 311 311 309 310 309 307 306 305 307 308 311 313 314 315 317 319 320 321 323 324 326 327 327 328 329 328 329 330 331 331
309 310 311 310 310 309 309 309 310 310 309 308 308 309 308 308 308 310 309 306 306 306 306 307 307 308 310 311 312 313 315 318 321 323 325 326 327 328 328 328 329 331 331
309 309 310 310 311 311 311 311 311 311 311 309 308 308 308 308 307 307 309 307 307 306 306 306 306 307 307 308 309 310 311 312 314 317 319 322 323 324 325 327 328 328 328
310 310 310 312 312 312 312 311 311 311 311 311 311 310 310 309 307 307 307 307 308 307 306 307 306 306 306 307 307 307 308 309 310 311 314 315 318 319 322 324 325 326 327
312 313 314 314 313 312 314 313 312 312 312 311 311 311 310 310 309 308 309 308 308 309 308 307 307 307 306 305 306 306 305 305 307 309 310 311 314 316 319 321 323 324 325
313 314 314 315 315 314 314 315 314 314 313 312 312 312 311 310 309 309 309 308 309 308 308 309 308 307 307 306 305 305 305 304 304 305 308 309 309 311 315 316 318 319 322
313 313 314 316 316 315 315 314 314 314 314 313 313 312 312 311 310 310 310 308 308 305 303 306 308 308 308 307 306 306 306 305 305 305 304 307 309 309 310 315 316 317 318
312 313 314 315 315 315 315 315 314 313 313 313 313 313 313 312 310 310 310 309 308 308 308 303 302 302 303 304 304 305 306 305 301 301 302 303 306 308 309 311 314 315 315
313 313 314 315 316 316 315 314 314 313 313 313 313 312 312 312 312 311 311 310 309 309 309 308 307 302 302 302 301 301 300 300 299 299 299 302 304 304 308 309 310 312 312
315 315 315 316 316 317 316 315 315 316 316 314 315 314 313 312 312 312 311 310 309 309 309 309 308 306 302 301 301 301 300 300 300 299 298 299 302 303 305 309 309 308 308
316 316 316 315 315 315 317 317 316 314 313 313 313 314 314 312 312 312 311 310 309 309 309 308 308 307 303 301 301 301 300 300 299 299 299 299 300 301 302 306 309 309 308
317 317 316 316 316 316 318 317 313 312 311 311 312 314 313 312 312 312 312 311 310 310 309 308 307 304 301 301 301 300 299 299 299 299 300 300 299 301 300 301 306 309 309
Wind_Speed
8 10 9 9 9 11 13 15 16 17 18 18 17 16 16 16 15 16 16 15 14 14 13 11 12 13 17 20 24 24 27 25 30 34 30 26 23 21 21 20 20 22 21
8 6 8 11 14 16 17 19 20 21 22 22 23 22 21 22 21 21 21 21 19 19 17 17 15 13 14 13 16 19 25 22 25 31 31 28 26 23 22 22 22 22 22
5 8 11 14 16 17 18 19 19 19 19 19 19 19 20 19 20 21 23 22 22 23 22 22 21 20 19 18 15 12 11 14 18 22 25 24 22 19 18 20 20 21 22
8 13 17 16 15 15 15 15 15 16 17 17 17 17 17 17 17 19 21 23 24 26 26 24 24 25 24 22 20 19 16 15 15 17 20 22 22 21 20 23 25 25 24
14 15 14 14 15 13 10 12 13 14 13 13 14 15 17 17 16 19 20 20 23 25 25 27 25 23 22 22 24 23 23 21 19 18 20 21 23 26 28 27 27 25 25
11 11 12 11 10 9 11 12 12 13 14 14 15 16 16 17 16 14 19 22 21 21 23 23 24 26 27 23 23 23 22 22 21 20 18 20 22 25 26 27 26 24 26
15 12 9 10 11 13 13 13 14 17 18 18 15 16 17 18 18 16 15 18 21 20 15 13 16 18 21 25 28 25 24 24 22 23 23 22 22 21 21 24 26 27 29
13 13 12 12 13 14 13 15 17 18 20 20 20 18 19 19 22 21 16 16 17 18 13 11 14 15 17 20 24 28 30 28 27 26 26 23 22 20 18 20 23 26 29
9 10 12 13 15 14 14 15 17 19 21 23 24 23 22 22 22 23 23 21 20 20 15 15 15 14 15 17 20 23 27 31 30 29 27 26 23 23 21 19 21 25 31
5 8 10 12 16 17 14 12 14 17 20 22 24 24 22 22 24 25 26 24 22 21 17 14 14 14 15 16 18 18 20 22 24 29 29 28 25 23 23 22 20 21 27
8 8 8 13 14 15 15 17 18 18 19 22 25 28 27 29 29 28 29 30 29 22 20 19 18 18 17 17 16 18 20 21 20 20 21 25 24 24 21 21 21 20 29
7 8 12 15 16 18 16 15 15 14 16 19 22 25 28 30 32 32 30 30 31 27 21 18 19 22 21 19 18 17 18 18 21 23 23 21 20 26 24 21 20 20 18
11 10 10 11 11 12 13 12 13 15 15 17 18 21 25 27 30 33 35 33 31 32 23 20 18 17 14 13 12 12 13 15 17 18 20 23 23 21 20 24 23 22 21
6 7 6 7 6 7 9 11 11 13 14 15 18 18 20 23 27 31 35 35 32 29 30 26 20 16 14 12 11 10 12 13 13 15 18 18 20 22 25 26 26 23 25
4 4 5 6 6 6 6 8 11 13 13 16 15 17 18 20 21 25 29 34 33 31 29 27 27 27 25 21 18 14 12 12 14 14 16 18 20 21 22 23 25 29 31
4 6 5 7 9 11 8 9 8 12 14 14 15 13 14 17 18 18 21 25 29 28 30 31 32 30 28 28 29 27 20 16 13 13 14 14 13 16 21 20 21 24 25
6 4 4 7 8 10 11 10 12 12 14 15 15 17 17 19 16 15 17 19 25 24 25 28 29 29 29 29 29 29 29 26 20 15 11 10 16 17 19 20 20 21 24
2 3 5 7 8 9 10 10 12 14 15 16 17 16 18 20 15 16 19 16 19 22 22 22 24 25 26 25 26 29 30 29 28 26 19 14 10 11 9 11 12 13 18
2 5 9 11 11 10 12 14 15 16 15 13 16 16 17 18 17 15 20 19 20 22 22 20 20 21 22 23 24 24 26 29 29 27 26 24 18 14 12 12 15 18 21
5 6 10 10 11 10 13 17 21 20 14 13 12 16 17 17 18 17 18 21 20 23 23 21 18 20 20 19 21 24 24 25 26 28 26 26 26 21 14 13 12 14 15
6 7 10 10 10 14 11 17 21 17 19 20 17 19 19 17 17 17 18 18 19 23 24 23 22 23 23 20 21 23 24 25 27 26 24 24 25 27 22 16 13 13 11
10 8 9 12 11 14 16 18 19 21 21 20 20 23 19 19 16 17 18 19 18 21 25 26 24 24 23 24 24 24 22 26 29 27 23 20 20 23 24 20 17 13 15
7 7 10 11 14 17 19 17 19 20 21 22 20 21 20 22 19 19 19 21 21 21 22 25 28 27 25 25 25 23 25 27 27 27 25 20 20 18 17 19 19 19 19
9 11 14 17 19 20 20 20 23 25 24 23 23 21 21 22 20 20 21 22 22 22 25 25 26 28 29 27 27 28 28 28 28 27 25 23 19 18 18 16 13 15 18
19 20 20 21 22 24 24 23 25 19 21 22 23 20 19 19 21 21 22 21 21 23 25 26 28 29 31 31 31 31 31 29 26 25 25 23 20 17 16 17 15 14 13
21 19 20 23 24 24 24 20 19 22 25 23 23 18 15 19 21 21 23 22 19 24 25 30 29 31 32 32 34 34 30 27 25 22 23 22 20 18 17 16 16 15 14
Wind_Direction
232 242 243 261 274 286 290 290 294 295 293 293 291 287 286 282 280 282 287 289 287 287 295 299 293 283 277 273 273 270 268 257 256 265 270 274 268 265 260 258 256 255 256
246 276 295 300 301 301 300 300 299 296 297 296 294 291 286 284 281 280 278 278 277 277 278 280 282 284 281 280 277 268 267 264 262 265 269 267 266 265 259 250 259 262 254
281 316 313 316 317 314 313 311 310 311 310 309 308 302 300 298 288 281 277 272 273 271 271 271 271 270 273 274 275 275 272 268 265 265 266 262 263 266 253 250 253 267 258
328 326 327 323 321 323 319 315 317 317 319 321 322 323 317 310 304 296 289 283 275 266 265 263 263 266 267 264 263 261 267 273 277 269 264 259 261 263 263 258 256 257 260
339 335 328 326 331 331 328 335 337 335 339 340 335 336 337 334 324 316 313 305 295 280 271 264 258 257 262 262 260 258 258 270 276 279 275 272 267 262 259 265 266 263 256
341 336 338 336 336 340 349 345 342 341 341 344 343 344 342 341 333 344 339 333 325 310 284 268 266 258 258 258 259 259 254 263 269 275 279 279 276 274 271 268 268 261 250
352 354 349 351 353 4 360 349 351 349 350 350 346 338 347 346 336 343 348 346 344 338 315 280 274 272 266 261 254 254 251 255 258 265 271 278 284 280 279 272 264 257 248
353 355 3 7 13 2 10 10 17 20 20 13 9 0 354 350 347 346 332 337 340 329 334 310 293 288 280 268 260 253 253 250 255 258 262 271 277 277 278 274 263 258 254
10 25 30 29 19 10 17 37 40 35 32 29 26 23 17 9 359 348 342 336 326 321 319 303 292 284 280 277 275 268 260 255 252 256 260 264 269 269 270 275 271 256 250
1 27 20 30 19 19 20 39 38 38 40 38 33 26 17 11 8 9 4 342 330 328 326 311 289 291 283 274 275 275 273 267 260 253 254 256 259 264 264 265 272 262 242
49 35 16 31 37 36 48 64 62 57 46 39 35 30 26 22 19 12 7 4 358 336 322 320 314 302 296 283 283 283 280 274 267 260 257 254 252 253 263 265 266 277 242
49 48 75 68 56 53 66 54 47 38 33 27 26 24 23 20 18 17 14 12 6 356 343 332 324 316 310 303 291 287 281 276 267 264 261 261 260 251 258 263 268 266 268
84 85 72 60 50 41 38 31 21 20 14 11 8 11 13 16 16 17 15 12 11 11 358 348 339 335 328 307 293 291 282 276 271 268 266 259 258 256 256 255 257 261 260
94 64 65 47 33 25 16 12 16 11 11 3 354 355 2 6 11 14 15 12 11 9 11 10 352 347 335 332 327 313 304 302 295 285 275 271 267 264 260 258 257 258 256
77 38 74 40 16 11 358 5 11 4 351 352 352 349 347 355 2 9 10 11 12 13 12 15 14 14 9 0 349 339 328 316 313 305 285 281 276 275 268 266 265 260 259
71 92 52 32 33 17 29 28 11 359 357 351 352 354 357 352 351 357 1 5 8 10 17 19 22 21 17 14 12 9 354 337 322 308 306 294 289 283 273 266 261 262 266
101 97 38 27 40 34 34 29 20 20 12 10 3 7 5 4 351 354 354 358 1 4 11 15 16 16 18 18 14 11 12 9 3 342 320 304 286 275 273 273 269 267 265
74 2 355 359 360 349 345 341 338 341 350 360 6 360 1 356 351 355 354 346 357 5 1 0 3 4 6 5 9 12 7 4 6 5 360 357 335 327 300 279 274 284 278
343 344 340 329 316 315 335 327 321 322 321 334 349 349 348 348 352 351 354 346 347 355 353 350 349 348 351 355 355 356 1 1 2 357 2 1 2 347 324 306 290 270 273
310 320 342 335 335 316 324 332 326 329 320 319 340 336 328 334 345 351 344 357 347 346 342 340 339 340 335 335 341 344 345 351 355 354 352 357 360 0 352 339 326 319 295
298 308 335 343 347 342 336 350 348 330 319 325 321 328 323 318 329 334 333 344 351 357 354 341 335 334 334 328 326 329 332 335 339 343 342 348 348 355 354 352 338 339 339
306 295 318 332 324 335 341 343 345 343 336 318 324 320 320 314 310 318 330 330 336 343 357 354 348 344 339 332 326 324 320 323 328 329 331 333 338 343 347 344 345 344 338
323 299 307 316 317 325 322 312 322 327 325 325 315 323 311 314 298 306 319 320 324 326 339 347 353 348 341 340 339 336 328 327 327 327 325 322 320 328 331 335 337 336 336
319 317 309 306 308 310 315 315 307 307 315 315 316 306 311 318 312 312 310 310 316 325 328 333 334 338 336 333 332 331 328 324 321 321 318 314 313 308 318 319 328 335 339
310 310 311 312 316 312 307 305 310 311 316 317 313 307 305 316 308 303 313 299 303 316 321 318 319 323 327 325 323 324 322 320 317 317 317 312 307 306 298 306 309 316 327
309 306 303 304 304 306 311 312 315 325 329 325 320 307 298 307 315 310 312 312 302 307 306 310 313 317 318 318 318 319 319 318 316 315 317 314 307 301 299 295 297 300 306